Weather in Verbania

Italy     45°55′40″N   8°33′35″E
temp.,
°C
wind,
m/s
gust,
m/s
humid.,
%
clouds,
%
prec.,
mm/h
press.,
hPa
HPBL,
m
26 february, fri
fri2601:00+5nnw33540 0.0 103238
04:00+5nnw33510 0.0 103136
07:00+4nnw33480 0.0 103135
10:00+11nnw12421 0.0 1029117
13:00+15sse113518 0.0 1028595
16:00+14se114462 0.0 1026447
19:00+8nnw227031 0.0 102726
22:00+6nnw336812 0.0 102860
27 february, sat
sat2701:00+5nnw337023 0.0 102867
04:00+4nnw33690 0.0 102669
07:00+3nnw33710 0.0 102763
10:00+10n12570 0.0 1027187
13:00+15ese01430 0.0 10271045
16:00+12sse33500 0.0 1027904
19:00+7s23828 0.0 1029133
22:00+7s2390100 0.4 1031345
28 february, sun
sun2801:00+6s2287100 0.8 1032356
04:00+5sse2290100 0.3 1031325
07:00+5s1287100 0.3 1032216
10:00+6s117699 0.0 1031518
13:00+9s116495 0.0 1030845
16:00+9sse016292 0.0 1028906
19:00+6sse017585 0.0 103022
22:00+4nnw128217 0.0 103122
1 march, mon
mon101:00+2nnw12829 0.0 103122
04:00+2nnw12820 0.0 103022
07:00+1nnw11830 0.0 103122
10:00+7n01611 0.0 1030402
13:00+10sse21401 0.0 1030953
16:00+10s22420 0.0 1029814
19:00+4w11710 0.0 103122
22:00+3nnw22670 0.0 103323
2 march, tue
tue201:00+2nnw22590 0.0 103429
04:00+1nnw23420 0.0 103329
07:00+1nnw23360 0.0 103327
10:00+8n01255 0.0 1033270
13:00+11sse212619 0.0 1032806
16:00+10sse21321 0.0 1031675
19:00+5wnw11571 0.0 103222
22:00+3nnw22560 0.0 103426